EWG705 LOWW-EDDS

Flight info

Callsign EWG705
Flight time N/A
Altitude 30000
Route LUGEM DCT KIRDI DCT EBEDA L173 MAH/N0372F240 L173 DODIL T127 TEKSI TEKSI5A
Aircraft A320/M-SDE3FGHIRWY/LB1

Departure

Time 2026-04-23 13:10
Airport Vienna International Airport (LOWW)

Arrival

Time N/A
Airport Stuttgart Airport (EDDS)
Time Latitude Longitude Altitude Speed Heading
2026-04-23 12:10 48.12007 16.55873 619 ft 0 kts 296°
2026-04-23 12:11 48.12007 16.55874 619 ft 0 kts 296°
2026-04-23 12:15 48.12006 16.55874 619 ft 0 kts 296°
2026-04-23 12:19 48.12006 16.55875 619 ft 0 kts 296°
2026-04-23 12:27 48.12006 16.55876 608 ft 0 kts 296°
2026-04-23 12:34 48.12006 16.55877 608 ft 0 kts 296°
2026-04-23 12:39 48.12005 16.55877 609 ft 0 kts 296°
2026-04-23 12:41 48.12005 16.55878 609 ft 0 kts 296°
2026-04-23 12:49 48.12005 16.55879 616 ft 0 kts 296°
2026-04-23 12:57 48.12005 16.55880 609 ft 0 kts 296°
2026-04-23 12:59 48.11995 16.55907 612 ft 4 kts 300°
2026-04-23 12:59 48.11981 16.55941 614 ft 4 kts 307°
2026-04-23 12:59 48.11964 16.55973 622 ft 4 kts 308°
2026-04-23 13:00 48.11955 16.55990 618 ft 2 kts 304°
2026-04-23 13:00 48.11957 16.55957 622 ft 24 kts 256°
2026-04-23 13:00 48.11938 16.55933 611 ft 24 kts 208°
2026-04-23 13:00 48.11934 16.55930 611 ft 54 kts 206°
2026-04-23 13:02 48.11923 16.55922 617 ft 5 kts 206°
2026-04-23 13:03 48.11899 16.55905 609 ft 3 kts 206°
2026-04-23 13:03 48.11876 16.55888 622 ft 4 kts 206°
2026-04-23 13:03 48.11835 16.55858 609 ft 7 kts 206°
2026-04-23 13:03 48.11798 16.55830 613 ft 5 kts 206°
2026-04-23 13:04 48.11756 16.55800 618 ft 8 kts 205°
2026-04-23 13:04 48.11690 16.55815 615 ft 15 kts 139°
2026-04-23 13:04 48.11640 16.55954 621 ft 15 kts 116°
2026-04-23 13:04 48.11597 16.56083 619 ft 13 kts 116°
2026-04-23 13:05 48.11560 16.56197 613 ft 11 kts 116°
2026-04-23 13:05 48.11528 16.56296 625 ft 10 kts 116°
2026-04-23 13:05 48.11493 16.56403 616 ft 16 kts 116°
2026-04-23 13:05 48.11440 16.56565 618 ft 17 kts 116°
2026-04-23 13:06 48.11348 16.56852 616 ft 14 kts 115°
2026-04-23 13:06 48.11309 16.56972 615 ft 12 kts 116°
2026-04-23 13:06 48.11274 16.57076 613 ft 10 kts 116°
2026-04-23 13:07 48.11245 16.57165 615 ft 9 kts 116°
2026-04-23 13:07 48.11220 16.57241 616 ft 8 kts 116°
2026-04-23 13:07 48.11198 16.57306 622 ft 7 kts 116°
2026-04-23 13:07 48.11166 16.57407 625 ft 15 kts 118°
2026-04-23 13:08 48.11120 16.57548 618 ft 14 kts 116°
2026-04-23 13:08 48.11063 16.57647 615 ft 12 kts 159°
2026-04-23 13:08 48.10992 16.57610 609 ft 10 kts 206°
2026-04-23 13:08 48.10936 16.57559 619 ft 9 kts 228°
2026-04-23 13:09 48.10943 16.57443 619 ft 14 kts 297°
2026-04-23 13:09 48.11017 16.57222 619 ft 48 kts 296°
2026-04-23 13:09 48.11258 16.56484 620 ft 107 kts 296°
2026-04-23 13:09 48.11656 16.55268 638 ft 149 kts 302°
2026-04-23 13:10 48.12113 16.53853 1227 ft 153 kts 295°
2026-04-23 13:10 48.12055 16.52240 1939 ft 173 kts 248°
2026-04-23 13:10 48.11124 16.50865 2388 ft 204 kts 225°
2026-04-23 13:10 48.09943 16.49535 2891 ft 220 kts 224°
2026-04-23 13:11 48.08707 16.48187 3892 ft 222 kts 224°
2026-04-23 13:11 48.07443 16.46797 4977 ft 224 kts 225°
2026-04-23 13:11 48.06187 16.45260 5730 ft 245 kts 227°
2026-04-23 13:11 48.04851 16.43521 6478 ft 270 kts 228°
2026-04-23 13:12 48.03394 16.41595 7398 ft 287 kts 227°
2026-04-23 13:12 48.01869 16.39592 8536 ft 295 kts 226°
2026-04-23 13:12 48.00300 16.37536 9691 ft 304 kts 226°
2026-04-23 13:12 47.98734 16.35374 10640 ft 308 kts 234°
2026-04-23 13:13 47.97612 16.32690 11305 ft 304 kts 255°
2026-04-23 13:13 47.97142 16.29645 11930 ft 304 kts 272°
2026-04-23 13:13 47.97340 16.26465 12156 ft 315 kts 291°
2026-04-23 13:13 47.98094 16.23322 12547 ft 327 kts 296°
2026-04-23 13:14 47.98891 16.20097 13178 ft 335 kts 295°
2026-04-23 13:14 47.99693 16.16791 13839 ft 341 kts 295°
2026-04-23 13:14 48.00494 16.13430 14424 ft 347 kts 295°
2026-04-23 13:14 48.01300 16.10011 15041 ft 350 kts 294°
2026-04-23 13:15 48.02112 16.06562 15682 ft 354 kts 294°
2026-04-23 13:15 48.02923 16.03119 16289 ft 358 kts 294°
2026-04-23 13:15 48.03765 15.99553 16933 ft 361 kts 294°
2026-04-23 13:15 48.04595 15.96047 17544 ft 364 kts 294°
2026-04-23 13:16 48.05443 15.92470 18159 ft 368 kts 294°
2026-04-23 13:16 48.06301 15.88843 18716 ft 371 kts 294°
2026-04-23 13:16 48.07163 15.85188 19248 ft 374 kts 294°
2026-04-23 13:16 48.08031 15.81503 19795 ft 377 kts 294°
2026-04-23 13:17 48.08906 15.77793 20350 ft 380 kts 294°
2026-04-23 13:17 48.09795 15.74060 20898 ft 382 kts 294°
2026-04-23 13:17 48.10695 15.70303 21426 ft 385 kts 294°
2026-04-23 13:17 48.11604 15.66514 21925 ft 388 kts 294°
2026-04-23 13:18 48.12515 15.62697 22429 ft 391 kts 294°
2026-04-23 13:18 48.13430 15.58846 22921 ft 394 kts 294°
2026-04-23 13:18 48.14348 15.54957 23403 ft 398 kts 294°
2026-04-23 13:18 48.15242 15.51012 23855 ft 403 kts 290°
2026-04-23 13:19 48.15940 15.46913 24237 ft 407 kts 289°
2026-04-23 13:19 48.16634 15.42785 24611 ft 410 kts 289°
2026-04-23 13:19 48.17199 15.38567 24980 ft 418 kts 282°
2026-04-23 13:19 48.17361 15.34236 25335 ft 424 kts 277°
2026-04-23 13:20 48.17462 15.29808 25687 ft 427 kts 277°
2026-04-23 13:20 48.17568 15.25346 26041 ft 430 kts 277°
2026-04-23 13:20 48.17673 15.20850 26389 ft 433 kts 277°
2026-04-23 13:20 48.17778 15.16326 26739 ft 436 kts 277°
2026-04-23 13:21 48.17882 15.11776 27073 ft 439 kts 277°
2026-04-23 13:21 48.17986 15.07194 27409 ft 442 kts 277°
2026-04-23 13:21 48.18087 15.02577 27741 ft 445 kts 277°
2026-04-23 13:21 48.18187 14.97930 28065 ft 448 kts 277°
2026-04-23 13:22 48.18287 14.93247 28376 ft 451 kts 277°
2026-04-23 13:22 48.18385 14.88538 28687 ft 454 kts 277°
2026-04-23 13:22 48.18482 14.83794 29008 ft 457 kts 277°
2026-04-23 13:22 48.18577 14.79018 29330 ft 460 kts 277°
2026-04-23 13:23 48.18670 14.74207 29644 ft 463 kts 277°
2026-04-23 13:23 48.18762 14.69371 29946 ft 466 kts 277°
2026-04-23 13:23 48.18853 14.64509 30184 ft 468 kts 277°
2026-04-23 13:23 48.18936 14.59675 30229 ft 456 kts 277°
2026-04-23 13:24 48.19009 14.54987 30230 ft 446 kts 278°
2026-04-23 13:24 48.19162 14.45750 30237 ft 442 kts 278°
2026-04-23 13:25 48.19325 14.36548 30244 ft 442 kts 278°
2026-04-23 13:25 48.19478 14.27331 30243 ft 443 kts 278°
2026-04-23 13:26 48.19613 14.18152 30244 ft 443 kts 278°
2026-04-23 13:26 48.19748 14.08857 30241 ft 443 kts 278°
2026-04-23 13:27 48.19870 13.99676 30229 ft 443 kts 278°
2026-04-23 13:27 48.19974 13.90426 30224 ft 443 kts 277°
2026-04-23 13:28 48.20075 13.81192 30225 ft 444 kts 277°
2026-04-23 13:28 48.20180 13.71941 30229 ft 444 kts 277°
2026-04-23 13:29 48.20266 13.64249 30236 ft 444 kts 277°
2026-04-23 13:29 48.20353 13.54989 30239 ft 445 kts 277°
2026-04-23 13:30 48.20433 13.45710 30243 ft 444 kts 277°
2026-04-23 13:30 48.20503 13.36417 30273 ft 451 kts 277°
2026-04-23 13:31 48.20576 13.26814 30279 ft 471 kts 276°
2026-04-23 13:31 48.20649 13.16788 30283 ft 489 kts 276°
2026-04-23 13:32 48.20699 13.06422 30284 ft 505 kts 275°
2026-04-23 13:32 48.20734 12.95778 30291 ft 514 kts 275°
2026-04-23 13:33 48.20759 12.85028 30291 ft 516 kts 275°
2026-04-23 13:33 48.20276 12.74435 30298 ft 520 kts 269°
2026-04-23 13:34 48.19553 12.63620 30302 ft 520 kts 268°
2026-04-23 13:34 48.18822 12.52830 30296 ft 520 kts 268°
2026-04-23 13:35 48.18086 12.42040 30300 ft 520 kts 268°
2026-04-23 13:35 48.17335 12.31254 30299 ft 520 kts 268°
2026-04-23 13:36 48.16958 12.25872 30301 ft 520 kts 268°